XRISM (57800 NORAD) Tracking and Keplerian Element Data

This shows tracking and keplerian element data for the satellite.

Feedback or suggestion? Click here.




ElementValue
Catalog57800
NameXRISM
Epoch Orbit1912
Epoch Day12.93325723
Epoch Year2024
RAAN285.6579
Inclination31.0039
Eccentricity0.0009593
Argument of Perigee101.1251
Mean Anonmoly259.0463
Mean Motion14.99213704
Decay Rate6.106E-05
L11 57800U 23137A 24012.93325723 .00006106 00000+0 48267-3 0 9991
L22 57800 31.0039 285.6579 0009593 101.1251 259.0463 14.99213704 19129



Live tracking and technical data element details for XRISM (NORAD 57800). XRISM can be tracked NOW for your location showing map with azimuth and elevation plus other details from your city location.







IsCatalogInMostPopularTable: catalog: 57800, numindb: 3
Update: records affected: 1



GetName: 57800 XRISM

Hit Count: updated at: Fri, 19 Apr 2024 11:32:27 GMT